Location: Champignolles
(47.0543°N, 4.5663°E)
Time: 17:27:51
(UTC+00:00)

X-37B - Visible Passes

Search period start: 25 February 2021 00:00
Search period end: 07 March 2021 00:00
Orbit: 383 x 391 km, 45.0° (Epoch: 10 February)

Date Brightness Start Highest point End Pass type
(mag) Time Alt. Az. Time Alt. Az. Time Alt. Az.
25 Feb 0.8 05:03:37 36° WSW 05:04:35 56° S 05:07:42 10° ESE visible
26 Feb 2.7 04:07:49 26° ESE 04:07:49 26° ESE 04:09:24 10° E visible
26 Feb 1.6 05:40:06 12° W 05:42:41 34° SSW 05:45:35 10° SE visible
27 Feb 1.0 04:44:21 45° SSW 04:44:25 46° SSW 04:47:28 10° ESE visible
28 Feb 3.6 03:48:39 14° ESE 03:48:39 14° ESE 03:49:14 10° ESE visible
28 Feb 2.1 05:20:56 17° WSW 05:22:25 24° SSW 05:25:02 10° SSE visible
01 Mar 2.2 04:25:18 26° SSE 04:25:18 26° SSE 04:27:07 10° SE visible
02 Mar 2.5 05:02:03 16° SSW 05:02:06 16° SSW 05:04:08 10° S visible
